Regional Weather Roundup
Issued by NWS Wakefield, VA

Home | Current Version | Previous Version | Graphics & Text | Print | Product List | Glossary On
Versions: 1 2 3 4 5 6 7 8 9 10 11 12 13 14 15 16 17 18 19 20 21 22 23 24 25 26 27 28 29 30 31 32 33 34 35 36 37 38 39 40 41 42 43 44 45 46 47 48 49 50
875
ASUS41 KAKQ 210314
RWRAKQ

REGIONAL WEATHER ROUNDUP
NATIONAL WEATHER SERVICE WAKEFIELD VA
1000 PM EST MON FEB 20 2017

Note: "fair" indicates few or no clouds below 12,000 feet with no
significant weather and/or obstructions to visibility. * = Denotes
station may not report precipitation (e.g., rain,snow,etc.),
thunder or fog.

VAZ042-051-052>054-056-210400-
NORTHERN VIRGINIA

CITY           SKY/WX    TMP DP  RH WIND       PRES   REMARKS
WASH NATIONAL  PTCLDY    50  30  46 NE7       30.29R
DULLES         CLOUDY    48  30  49 E6        30.28R
FORT BELVOIR   CLEAR     51  30  45 CALM      30.28R
QUANTICO       CLOUDY    50  37  61 E3        30.29R
FREDERICKSBRG* PTCLDY    47  36  63 CALM      30.27R
STAFFORD*      PTCLDY    49  32  51 E3        30.32R
WARRENTON      CLOUDY    42  31  63 CALM      30.28R
CULPEPER*      PTCLDY    46  34  63 E3        30.29R
MANASSAS*      PTCLDY    43  32  65 CALM      30.29R
LEESBURG*      CLOUDY    48  34  57 MISG      30.31R
WINCHESTER     PTCLDY    43  30  61 CALM      30.28R
FRONT ROYAL*   CLOUDY    52  32  46 E6        30.26R
LURAY*         PTCLDY    50  37  62 N3        30.25R
$$

VAZ048-049-060>072-079>083-210400-
CENTRAL AND SOUTH CENTRAL VIRGINIA

CITY           SKY/WX    TMP DP  RH WIND       PRES   REMARKS
RICHMOND       PTCLDY    51  37  58 E3        30.26R
CHESTERFIELD*  FAIR      50  27  40 CALM      30.28R
PETERSBURG*    CLEAR     42  35  75 CALM      30.27R
HANOVER        CLEAR     48  33  56 CALM      30.28R
TAPPAHANNOCK*  CLEAR     49  19  31 E3        30.28R
QUINTON*       FAIR      48  37  64 SE3       30.26R
CHARLOTTSVILLE PTCLDY    52  37  56 N7        30.26R
GORDONSVILLE*  CLOUDY    43  37  80 NE5       30.27R
ORANGE*        CLOUDY    46  34  61 CALM      30.29R
LOUISA*        CLOUDY    55  37  50 E5        30.26R
BUMPASS*       FAIR      50  35  55 CALM      30.27R
FARMVILLE*     PTCLDY    53  39  59 N6        30.22R
CREWE*         FAIR      50  40  68 E5        30.25R
FORT PICKETT*  FAIR      50  32  50 E7        30.25R
CHASE CITY*    FAIR      51  38  62 NE3       30.22R
CLARKSVILLE*   FAIR      52  41  66 CALM      30.22R
SOUTH HILL*    PTCLDY    53  40  61 CALM      30.30R
LAWRENCEVILLE* FAIR      51  35  55 CALM      30.25R
EMPORIA*       CLOUDY    48  34  57 CALM      30.26R
$$

VAZ088>098-210400-
SOUTHEAST VIRGINIA

CITY           SKY/WX    TMP DP  RH WIND       PRES   REMARKS
NORFOLK        CLEAR     48  36  63 E6        30.26R
VIRGINIA BEACH PTCLDY    46  36  68 E7        30.25S
NORFOLK NAVAL  PTCLDY    47  34  60 SE6       30.27S
WEST POINT*    CLEAR     42  34  73 CALM      30.29R
SALUDA*        FAIR      41  38  89 CALM      30.27S
NEWPORT NEWS   CLOUDY    44  36  73 E5        30.27R
LANGLEY AFB    CLEAR     47  37  67 E6        30.26R
FORT EUSTIS    CLOUDY    47  34  60 E3        30.24R
WILLIAMSBURG*  CLOUDY    46  37  71 CALM      30.27R
HR EXEC AP*    FAIR      46  34  61 E6        30.25R
FRANKLIN*      CLOUDY    42  33  70 CALM      30.26R
US460-WAKEFLD  PTCLDY    45  36  70 VRB3      30.26R
$$

VAZ020-022-025-037-045-210400-
WEST CENTRAL AND SOUTHWEST VIRGINIA

CITY           SKY/WX    TMP DP  RH WIND       PRES   REMARKS
STAUNTON*      PTCLDY    42  34  73 CALM      30.26R
WAYNESBORO*    MOCLDY    53  32  44 SE7       30.24R
HOT SPRINGS VA CLOUDY    52  23  32 SE9       30.25S
LYNCHBURG      MOCLDY    51  34  52 CALM      30.24R
DANVILLE       PTCLDY    50  41  71 E3        30.21R
SOUTH BOSTON*  FAIR      47  39  73 CALM      30.22R
MARTINSVILLE   MOCLDY    49  38  66 NW3       30.23R
ROANOKE        CLOUDY    59  33  37 CALM      30.23R
BLACKSBURG     PTCLDY    55  34  46 SE6       30.25R
DUBLIN*        MOCLDY    52  34  50 CALM      30.23R
MARION*        PTCLDY    53  32  44 E7        30.22S
HILLSVILLE*    CLOUDY    56  37  49 CALM      30.21S
RICHLANDS*     FAIR      58  27  31 SE5       30.17S
WISE*          CLOUDY    55  30  38 CALM      30.19R
ABINGDON*      PTCLDY    55  36  49 E5        30.17R
$$

MDZ021>025-VAZ099-100-210400-
SOUTHERN MARYLAND AND THE DELMARVA PENINSULA

CITY           SKY/WX    TMP DP  RH WIND       PRES   REMARKS
PATUXENT RIVER CLEAR     43  36  76 CALM      30.28R
BAY BRIDGE APT CLEAR     50  28  43 CALM      30.30R
LEONARDTOWN    CLEAR     46  32  57 CALM      30.30R
DOVER          CLEAR     43  29  59 N7        30.30R
GEORGETOWN     CLEAR     40  32  73 CALM      30.30R
EASTON         CLEAR     45  29  55 E5        30.33R
CAMBRIDGE      NOT AVBL
SALISBURY      CLEAR     38  33  82 CALM      30.29R
OCEAN CITY     CLEAR     37  33  85 CALM      30.30R
WALLOPS ISLAND CLEAR     43  39  86 E5        30.30R
ACCOMACK*      CLEAR     40  37  87 E6        30.28S
$$

NCZ012>017-030>032-210400-
NORTH CENTRAL AND EASTERN NORTH CAROLINA

CITY           SKY/WX    TMP DP  RH WIND       PRES   REMARKS
ROANOKE RAPIDS FAIR      52  41  66 E6        30.24R
RALEIGH        MOCLDY    51  39  63 CALM      30.22R
ELIZABETH CITY CLOUDY    46  40  79 E6        30.26R
AHOSKIE*         N/A     49  39  68 CALM      30.25R
EDENTON*       CLOUDY    49  43  80 E3        30.25S
CURRITUCK*     CLOUDY    49  39  68 E7        30.26R
KILL DEVIL HLS NOT AVBL
MANTEO         CLOUDY    48  44  85 E10       30.25S
CAPE HATTERAS  CLEAR     53  45  74 NE6       30.23S
TARBORO*       NOT AVBL
GOLDSBORO      CLOUDY    57  41  55 SE6       30.20R
WASHINGTON     PTCLDY    50  39  64 E3        30.24R
GREENVILLE     PTCLDY    52  41  66 E5        30.24R
NEW BERN       PTCLDY    52  43  71 E5        30.24R
WILMINGTON     PTCLDY    56  49  77 E6        30.21R
$$

VAZ048-210400-
ELSEWHERE

CITY           SKY/WX    TMP DP  RH WIND       PRES   REMARKS
HARRISBURG PA  CLOUDY    40  27  59 NW3       30.31R
BALTIMORE      PTCLDY    49  27  42 NE7       30.29R
ANNAPOLIS      CLEAR     51  31  46 NE6       30.30R
ANDREWS AFB    PTCLDY    46  29  51 NE8       30.28R
PHILADELPHIA   CLEAR     47  10  22 NE15      30.33R
HENDERSON NC   PTCLDY    52  34  50 CALM      30.22R
GREENSBORO     CLOUDY    59  39  47 CALM      30.20R
ROCKY MOUNT    CLOUDY    53  42  66 E5        30.22R
$$

VAZ100-210400-
MARINE

STATION/POSITION TIME  TEMP    WIND        PRES    WAVE   SWELL
                       AIR SEA DIR/SP/G            HT/PER HT/PER
                 (UTC) (F)     (DEG/KT/KT) (MB)    (FT/S) (FT/S)
CAPE MAY NJ      0248   41 41   80/  3/  4 1025.6R
LEWES DE         0242   46 43  120/  7/  8 1025.5R
OCEAN-CITY-INLET 0242   45 44  110/  2/  4 1026.1R
WACHAPREAGUE VA  0248   45 53   30/  5/  5 1025.2R
THOMAS POINT MD  0300   50 43   50/  9/ 10   N/A
GOOSES REEF MD   0300   46 43   30/  2/  2 1026.2
COVE POINT MD    0248   50      70/  6/  6 1026.0R
SOLOMONS ISLAND  0242   44 44  220/  3/  4   N/A
BISHOPS HEAD MD  0248   46 49   50/  5/  6 1025.5R
PINEY POINT MD   0248          130/  2/  2   N/A
POTOMAC MD       0300   46 44   60/  4/  6 1024.6    0
CAMBRIDGE MD     0248   49 44   40/  7/  8 1025.0R
LEWISETTA VA     0248   48 47   80/  4/  5 1025.1R
RAPPAHANNOCK LGT 0248           80/  5/  5 1025.7R
YORK RVR RNG VA  0248   47     120/  5/  6 1024.3R
YORKTOWN VA      0248   50 45  110/  6/  8 1024.6R
JAMESTOWN VA     0300   49 49  100/  6/  8   N/A
DOMINION TERM VA 0248   50      90/  4/  5 1024.7R
KIPTOPEKE VA     0242      47  120/  3/  4   N/A
CHES BAY BRIDGE  0248   48 47  110/  7/  9 1024.5R
CAPE HENRY VA    0248   48     110/  8/  9   N/A
WILLOUBY STN VA  0248   48     110/  8/ 10 1025.5R
S CRANEY ISL VA  0248   50     110/  4/  7 1024.3R
CAPE HENRY BUOY  0242      48                N/A     2/ 5
OFFSHORE WE BUOY 0251      48                N/A     2/ 5
64NM E OF VA BCH 0250   53 54   50/ 16/ 17 1024.4R   3/ 6
DUCK PIER NC     0248   49 49   50/ 12/ 14 1023.9R
44100 DUCK FRF   0235      48                N/A     2/ 5
44056 DUCK FRF   0230      49                N/A     2/ 6
OREGON INLET NC  0242   49 51   30/  8/ 10 1023.9S
HATTERAS NC      0248   54 57   40/  7/ 10 1023.1F
DIAMOND SHLS NC  0250   60 73   50/ 17/ 23 1023.1F   5/ 8   2/13
CAPE LOOKOUT NC  0300   58      50/ 15/ 17 1023.1R
$$




USA.gov is the U.S. government's official web portal to all federal, state and local government web resources and services.